Regional Weather Roundup
Issued by NWS

Home | Current Version | Previous Version | Graphics & Text | Print | Product List | Glossary On
Versions: 1 2 3 4 5 6 7 8 9 10 11 12 13 14 15 16 17 18 19 20 21 22 23 24 25 26 27 28 29 30 31 32 33 34 35 36 37 38 39 40 41 42 43 44 45 46 47 48 49 50
000
ASUS44 KMEG 271010
RWRTN
TENNESSEE HOURLY STATE WEATHER ROUNDUP
NATIONAL WEATHER SERVICE MEMPHIS TN
400 AM CST THU NOV 27 2014

TNZ002-004-019-021-049-052-054-088>092-271100-
WEST TENNESSEE

CITY           SKY/WX    TMP DP  RH WIND       PRES   REMARKS
MEMPHIS INTL   CLOUDY    40  29  64 NW15G24   30.34R WCI  32
NWS MEMPHIS      N/A     39 N/A N/A MISG        N/A
JACKSON        CLOUDY    40  32  73 NW13G23   30.29R WCI  32
DYERSBURG      CLOUDY    37  21  52 NW13G20   30.33R WCI  29
UNION CITY     CLOUDY    36  30  80 NW12      30.27R WCI  27
PARIS          CLOUDY    34  30  86 NW8       30.25R WCI  27
HUNTINGDON     CLOUDY    35  31  86 NW9       30.26R WCI  28
LEXINGTON      CLOUDY    39  30  70 NW17      30.24R WCI  30
SAVANNAH       CLOUDY    37  34  87 W5        30.25R WCI  34
$$

TNZ008-025-027-028-033-062-065-066-271100-
NORTH MIDDLE TENNESSEE

CITY           SKY/WX    TMP DP  RH WIND       PRES   REMARKS
NASHVILLE      CLOUDY    39  34  82 NW9G20    30.19R WCI  33
CLARKSVILLE    CLOUDY    36  32  85 NW12      30.22R WCI  28
COOKEVILLE     CLOUDY    37  32  81 NW10      30.11R WCI  30
CROSSVILLE     CLOUDY    36  29  75 W18G25    30.06R WCI  26
$$

TNZ061-075-076-078-094-096-097-271100-
SOUTH MIDDLE TENNESSEE

CITY           SKY/WX    TMP DP  RH WIND       PRES   REMARKS
FAYETTEVILLE   CLOUDY    36  30  80 MISG      30.17R
TULLAHOMA      CLOUDY    37  32  81 W9        30.15R WCI  31
WINCHESTER     CLOUDY    37  32  81 W8        30.15S WCI  31
MCMINNVILLE    CLOUDY    37  34  87 NW7       30.13R WCI  32
COLUMBIA       CLOUDY    39  37  93 NW10      30.18R WCI  32
SHELBYVILLE    CLOUDY    39  36  87 W10       30.18R WCI  32
$$

TNZ017-018-042-046-047-271100-
NORTHEAST TENNESSEE

CITY           SKY/WX    TMP DP  RH WIND       PRES   REMARKS
TRI CITIES     LGT SNOW  33  33 100 W3        30.00S FOG
ELIZABETHTON   LGT SNOW  30  30 100 SW6       29.99S FOG     WCI  24
$$

TNZ012-013-036-069-073-074-271100-
CENTRAL EAST TENNESSEE

CITY           SKY/WX    TMP DP  RH WIND       PRES   REMARKS
KNOXVILLE      CLOUDY    39  34  82 SW13      30.07R WCI  31
OAK RIDGE      MOCLDY    39  31  72 VRB6      30.08R WCI  35
GATLINBURG     SUNNY     37  30  75 W10       30.04R WCI  30
MORRISTOWN     PTSUNNY   36  36 100 W9        30.03R WCI  29
$$

TNZ083-085-099-271100-
SOUTHEAST TENNESSEE

CITY           SKY/WX    TMP DP  RH WIND       PRES   REMARKS
CHATTANOOGA    CLOUDY    43  31  62 W12       30.14R
$$

SKY/WX REPORTED AS FAIR MEANS FEW OR NO CLOUDS BELOW
12 THOUSAND FEET.



USA.gov is the U.S. government's official web portal to all federal, state and local government web resources and services.